STARLINK-34678

Last updated on Thu Oct 02 2025 00:02:05 GMT+0000 (Coordinated Universal Time)

1 65443U 25194K 25274.48294036 .00148069 00000+0 26670-2 0 9999 2 65443 97.6018 126.8698 0001974 64.7301 295.4154 15.49254818 5650
UTC large
Height (km)
Speed (km/s)
/
Latitude / Longitude
Inclination (degrees)
Orbital Period (minutes)
Azimuth
Elevation
Range (km)
Doppler Factor

Next 0 passes for location: London (51.5072 / 0.1276)

Sorry there are no passes over London.
STARLINK-34678